This demonstration page uses our WeatherBlox Daily Observations layout. Learn more.

Left ArrowRight Arrow

39.12711, -84.51439

Hourly Observations for May 16, 2018

Temp ( °F °C ) Dew Point ( °F °C ) Humidity (%) Winds ( mph kmh ) Pressure ( in mb ) Visibility ( mi km ) Precip ( " mm )
12:53 am 00:53 Cloudy 71 21.7 67 19.4 87 87 NE 6 9 29.94 1014 10 16 0.00 0.00
1:53 am 01:53 Cloudy with Light Rain 71 21.7 67 19.4 87 87 E 5 7 29.93 1014 10 16 0.00 0.03
2:53 am 02:53 Cloudy 70 21.1 68 20 93 93 ENE 8 13 29.91 1013 9 14 0.00 0.03
3:53 am 03:53 Mostly Cloudy 69 20.6 68 20 96 96 N 3 6 29.90 1013 7 11 0.01 0.25
4:35 am 04:35 Mostly Cloudy with Mist and Fog 68 20 68 20 100 100 Calm 29.91 1013 6 10 0.00 0.00
4:53 am 04:53 Cloudy with Mist and Fog 68 20 67 19.4 96 96 Calm 29.91 1013 5 8 0.00 0.00
5:35 am 05:35 Cloudy with Mist and Fog 68 20 68 20 100 100 Calm 29.91 1013 5 8 0.00 0.00
5:53 am 05:53 Cloudy with Mist and Fog 68 20 68 20 100 100 N 3 6 29.91 1013 5 8 0.00 0.00
6:00 am 06:00 Cloudy with Mist and Fog 69 20.6 68 20 96 96 NNE 3 6 29.91 1013 6 10 0.00 0.00
6:43 am 06:43 Cloudy with Mist and Fog 68 20 68 20 100 100 NNE 5 7 29.91 1013 3 5 0.00 0.00
6:53 am 06:53 Cloudy with Mist and Fog 69 20.6 68 20 96 96 NNE 5 7 29.92 1013 4 6 0.00 0.00
7:20 am 07:20 Cloudy with Mist and Fog 68 20 67 19.4 96 96 NE 9 15 29.91 1013 3 5 0.00 0.00
7:28 am 07:28 Cloudy with Mist and Fog 68 20 67 19.4 96 96 NNE 7 11 29.91 1013 3 5 0.00 0.00
7:53 am 07:53 Cloudy with Mist and Fog 68 20 67 19.4 96 96 NE 8 13 29.94 1014 3 5 0.00 0.00
8:38 am 08:38 Partly Cloudy with Mist and Fog 70 21.1 68 20 93 93 E 3 6 29.91 1013 4 6 0.00 0.00
8:53 am 08:53 Mostly Cloudy with Mist and Fog 71 21.7 68 20 90 90 NNE 6 9 29.94 1014 5 8 0.00 0.00
9:53 am 09:53 Mostly Cloudy 73 22.8 68 20 84 84 VRB 3 6 29.94 1014 9 14 0.00 0.00
10:53 am 10:53 Mostly Cloudy 74 23.3 68 20 82 82 S 6 9 29.94 1014 10 16 0.00 0.00
11:53 am 11:53 Mostly Cloudy 77 25 67 19.4 71 71 Calm 29.94 1014 10 16 0.00 0.00
12:53 pm 12:53 Mostly Cloudy 77 25 67 19.4 71 71 SSW 6 9 29.93 1014 10 16 0.00 0.00
1:08 pm 13:08 Mostly Cloudy 78 25.6 68 20 71 71 Calm 29.91 1013 10 16 0.00 0.00
1:26 pm 13:26 Mostly Cloudy with Nearby Thunderstorms 75 23.9 68 20 79 79 NNW 12 19 29.91 1013 10 16 0.00 0.03
1:41 pm 13:41 Cloudy with Thunderstorms 73 22.8 70 21.1 90 90 N 14 22 29.91 1013 7 11 0.00 0.03
1:53 pm 13:53 Cloudy with Thunderstorms 71 21.7 67 19.4 87 87 NNE 10 17 29.93 1014 7 11 0.01 0.25
2:09 pm 14:09 Cloudy with Strong Thunderstorms 69 20.6 68 20 96 96 ENE 9 15 29.91 1013 2 3 0.25 6.35
2:29 pm 14:29 Mostly Cloudy with Light Rain 69 20.6 68 20 96 96 E 8 13 29.91 1013 7 11 0.30 7.62
2:53 pm 14:53 Partly Cloudy with Mist and Fog 72 22.2 71 21.7 97 97 ENE 5 7 29.92 1013 6 10 0.30 7.62
3:38 pm 15:38 Mostly Cloudy 73 22.8 70 21.1 90 90 ENE 7 11 29.91 1013 7 11 0.00 0.00
3:50 pm 15:50 Mostly Cloudy 73 23 70 21 89 89 ENE 8 13 29.91 1013 7 11 0.00 0.00
3:53 pm 15:53 Partly Cloudy 74 23.3 70 21.1 88 88 ENE 10 17 29.91 1013 8 13 0.00 0.00
4:53 pm 16:53 Partly Cloudy 74 23.3 68 20 82 82 E 6 9 29.91 1013 10 16 0.00 0.00
5:53 pm 17:53 Cloudy with Rain 70 21.1 67 19.4 90 90 ENE 3 6 29.90 1012 7 11 0.05 1.27
6:53 pm 18:53 Sunny 72 22.2 69 20.6 91 91 NNW 6 9 29.89 1012 9 14 0.00 0.03
7:53 pm 19:53 Partly Cloudy with Mist and Fog 72 22.2 70 21.1 94 94 Calm 29.90 1012 6 10 0.00 0.00
8:53 pm 20:53 Clear with Mist and Fog 69 20.6 69 20.6 100 100 Calm 29.91 1013 6 10 0.00 0.00
9:53 pm 21:53 Clear with Mist and Fog 67 19.4 67 19.4 100 100 Calm 29.92 1013 5 8 0.00 0.00
10:53 pm 22:53 Mostly Cloudy with Mist and Fog 68 20 68 20 100 100 Calm 29.93 1014 2 3 0.00 0.00
11:00 pm 23:00 Mostly Cloudy with Mist and Fog 68 20 68 20 100 100 Calm 29.91 1013 1 1 0.00 0.00
11:22 pm 23:22 Mostly Cloudy with Fog 67 19.4 67 19.4 100 100 Calm 29.91 1013 0 0 0.00 0.00
11:36 pm 23:36 Mostly Cloudy with Mist and Fog 67 19.4 67 19.4 100 100 Calm 29.91 1013 1 1 0.00 0.00
11:46 pm 23:46 Mostly Cloudy with Mist and Fog 67 19.4 67 19.4 100 100 Calm 29.91 1013 3 4 0.00 0.00
11:53 pm 23:53 Mostly Cloudy with Mist and Fog 67 19.4 67 19.4 100 100 Calm 29.93 1014 3 5 0.00 0.00

Powered by AerisWeather